NOAA 16 DEB, 41523

Orbit data source: Space-Track

NOAA 16 DEB, 41523 is space debris in SSO originally from a launch on Thu, 21 Sep 2000 UTC launched from the Air Force Western Test Range (AFWTR). Debris objects in space refer to the collection of defunct objects orbiting the Earth. Examples of debris include non-operational satellites, rocket bodies, and fragments generated from explosions, collisions, or faulty payload assembly.

Loading next visibility...
Identifier
41523, 2000-055MX
Orbit
SSO
Country
Flag of USUS
Related business
Manufacturer
Unknown
Mission
Spacecraft
Bus & Motor
Unknown
Mass
Unknown
Launch date (UTC)
2000-09-21 (25 years ago)
Launch vehicle
Unknown
Launch site
Air Force Western Test Range (AFWTR)
Object type
Payload
Rocket body
Debris
Shape & HBR
Unknown shape, 0.1 m
Radar Cross Section
Small (<0.1 m²)

Expand to show TLE details & history
Last TLE update: 2 days ago

TLE from 2 days ago
0 NOAA 16 DEB
1 41523U 00055MX  25354.15358621  .00002609  00000-0  11097-2 0  9992
2 41523  98.7273  71.5241 0010745 218.2328 141.8091 14.26066313498834
Epoch: 2025-12-20T03:41Z
TLE epoch observation values (Epoch: 2025-12-20T03:41:09.848Z)
Latitude
Longitude
-72.75141°
Altitude
813.902 km
Speed
7.443 km/s
True Right ascension
04h 46m 05s
True Declination
0° 00' 00"
Sunlit
Object was in full shadow at epoch
Visualization orbit readout
Latitude
Unknown
Longitude
Unknown
Altitude
Unknown
Speed
Unknown
Apparent Right ascension
Unknown
Apparent Declination
Unknown
Sunlit
N/A
Visualization observer readout
Local Sidereal Time
16:33:05
Azimuth
Unknown
Elevation
Unknown
Doppler factor
Unknown
Orbital elements
Apogee altitude
809.776 km
Perigee altitude
794.346 km
Semi-major axis
7,180.198 km
Eccentricity
0.00107
Inclination
98.7273°
RAAN
71.5241°
Arg. of periapsis
218.2328°
True anomaly
141.88515°
Mean anomaly
141.8091°
Eccentric anomaly
141.84713°
Mean motion
3.56729 °/min
Orbital period
100.92 mins
BSTAR
0.0011097
Loading maneuver chart data...
Computing Atmospheric mass density...
Loading historical data...
Loading historical data...
Loading historical data...
Loading historical data...
Loading historical data...
Loading historical data...
Loading historical data...

Documentation

Showing up to 5 results
|